EN

Hourly Weather Travkyne

Today, 17 April, Saturday

Time Temperature Precipitation Wind Pressure Humidity
00:00 +4°C° 0 mm 3 mps 748 mmHg 86%
01:00 +4°C° 0 mm 3 mps 748 mmHg 86%
02:00 +4°C° 0 mm 3 mps 749 mmHg 85%
03:00 +4°C° 0 mm 3 mps 749 mmHg 84%
04:00 +5°C° 0 mm 2 mps 749 mmHg 84%
05:00 +5°C° 0 mm 2 mps 749 mmHg 83%
06:00 +5°C° 0 mm 2 mps 750 mmHg 80%
07:00 +5°C° 0 mm 2 mps 750 mmHg 77%
08:00 +5°C° 0 mm 2 mps 750 mmHg 74%
09:00 +6°C° 0 mm 2 mps 751 mmHg 71%
10:00 +7°C° 0 mm 2 mps 751 mmHg 69%
11:00 +7°C° 0 mm 2 mps 751 mmHg 66%
12:00 +7°C° 0 mm 2 mps 751 mmHg 65%
13:00 +9°C° 0 mm 1 mps 751 mmHg 64%
14:00 +9°C° 0 mm 1 mps 751 mmHg 62%
15:00 +9°C° 0 mm 1 mps 751 mmHg 64%
16:00 +9°C° 0 mm 1 mps 751 mmHg 65%
17:00 +9°C° 0 mm 1 mps 751 mmHg 67%
18:00 +7°C° 0 mm 2 mps 751 mmHg 72%
19:00 +6°C° 0 mm 2 mps 751 mmHg 77%
20:00 +5°C° 0 mm 3 mps 751 mmHg 83%
21:00 +4°C° 0 mm 3 mps 751 mmHg 86%
22:00 +4°C° 0 mm 3 mps 751 mmHg 90%
23:00 +3°C° 0 mm 3 mps 751 mmHg 93%

Tomorrow, 18 April, Sunday

Time Temperature Precipitation Wind Pressure Humidity
00:00 +3°C° 0 mm 3 mps 750 mmHg 93%
01:00 +3°C° 0 mm 3 mps 750 mmHg 93%
02:00 +3°C° 0 mm 3 mps 750 mmHg 93%
03:00 +3°C° 0 mm 4 mps 750 mmHg 93%
04:00 +3°C° 0 mm 4 mps 749 mmHg 93%
05:00 +2°C° 0 mm 5 mps 749 mmHg 93%
06:00 +2°C° 0.8 mm 5 mps 748 mmHg 92%
07:00 +3°C° 0.8 mm 6 mps 748 mmHg 90%
08:00 +4°C° 0.8 mm 6 mps 748 mmHg 89%
09:00 +4°C° 1.2 mm 6 mps 748 mmHg 90%
10:00 +4°C° 1.2 mm 6 mps 748 mmHg 90%
11:00 +5°C° 1.2 mm 5 mps 748 mmHg 91%
12:00 +5°C° 0.2 mm 5 mps 748 mmHg 90%
13:00 +5°C° 0.2 mm 5 mps 748 mmHg 88%
14:00 +5°C° 0.2 mm 4 mps 748 mmHg 87%
15:00 +5°C° 0 mm 4 mps 749 mmHg 89%
16:00 +5°C° 0 mm 4 mps 749 mmHg 91%
17:00 +4°C° 0 mm 4 mps 749 mmHg 93%
18:00 +4°C° 0 mm 3 mps 749 mmHg 93%
19:00 +4°C° 0 mm 3 mps 749 mmHg 93%
20:00 +4°C° 0 mm 3 mps 750 mmHg 93%
21:00 +4°C° 0 mm 3 mps 750 mmHg 94%
22:00 +4°C° 0 mm 3 mps 750 mmHg 94%
23:00 +4°C° 0 mm 3 mps 750 mmHg 95%

Day after tomorrow, 19 April, Monday

Time Temperature Precipitation Wind Pressure Humidity
00:00 +4°C° 0 mm 3 mps 750 mmHg 94%
01:00 +4°C° 0 mm 3 mps 750 mmHg 93%
02:00 +4°C° 0 mm 3 mps 750 mmHg 92%
03:00 +4°C° 0 mm 3 mps 750 mmHg 92%
04:00 +3°C° 0 mm 3 mps 750 mmHg 93%
05:00 +3°C° 0 mm 3 mps 750 mmHg 93%
06:00 +4°C° 0 mm 3 mps 750 mmHg 89%
07:00 +4°C° 0 mm 3 mps 750 mmHg 84%
08:00 +5°C° 0 mm 4 mps 750 mmHg 79%
09:00 +6°C° 0 mm 4 mps 749 mmHg 79%
10:00 +6°C° 0 mm 4 mps 749 mmHg 80%
11:00 +7°C° 0 mm 3 mps 749 mmHg 80%
12:00 +7°C° 0 mm 3 mps 749 mmHg 79%
13:00 +8°C° 0 mm 3 mps 749 mmHg 79%
14:00 +8°C° 0 mm 3 mps 749 mmHg 78%
15:00 +9°C° 0.1 mm 3 mps 748 mmHg 77%
16:00 +9°C° 0.1 mm 2 mps 748 mmHg 76%
17:00 +9°C° 0.1 mm 2 mps 748 mmHg 75%
18:00 +8°C° 0 mm 2 mps 748 mmHg 79%
19:00 +8°C° 0 mm 2 mps 747 mmHg 83%
20:00 +8°C° 0 mm 1 mps 747 mmHg 87%
21:00 +7°C° 0 mm 1 mps 747 mmHg 88%
22:00 +6°C° 0 mm 2 mps 746 mmHg 90%
23:00 +6°C° 0 mm 2 mps 746 mmHg 91%

20 April, Tuesday

Time Temperature Precipitation Wind Pressure Humidity
00:00 +5°C° 0 mm 2 mps 746 mmHg 91%
01:00 +5°C° 0 mm 2 mps 745 mmHg 91%
02:00 +5°C° 0 mm 2 mps 745 mmHg 91%
03:00 +4°C° 0 mm 2 mps 745 mmHg 91%
04:00 +4°C° 0 mm 2 mps 744 mmHg 91%
05:00 +3°C° 0 mm 3 mps 743 mmHg 91%
06:00 +4°C° 0 mm 3 mps 743 mmHg 90%
07:00 +5°C° 0 mm 4 mps 742 mmHg 89%
08:00 +6°C° 0 mm 4 mps 742 mmHg 88%
09:00 +7°C° 0.1 mm 5 mps 741 mmHg 84%
10:00 +8°C° 0.1 mm 5 mps 741 mmHg 80%
11:00 +10°C° 0.1 mm 6 mps 740 mmHg 76%
12:00 +10°C° 0.2 mm 6 mps 739 mmHg 76%
13:00 +10°C° 0.2 mm 7 mps 739 mmHg 75%
14:00 +10°C° 0.2 mm 7 mps 738 mmHg 75%
15:00 +9°C° 0.2 mm 7 mps 738 mmHg 79%
16:00 +8°C° 0.2 mm 7 mps 738 mmHg 83%
17:00 +6°C° 0.2 mm 7 mps 737 mmHg 86%
18:00 +6°C° 0.1 mm 7 mps 738 mmHg 86%
19:00 +5°C° 0.1 mm 7 mps 738 mmHg 86%
20:00 +5°C° 0.1 mm 7 mps 738 mmHg 86%
21:00 +5°C° 0 mm 7 mps 738 mmHg 84%
22:00 +5°C° 0 mm 7 mps 738 mmHg 83%
23:00 +5°C° 0 mm 7 mps 739 mmHg 81%

21 April, Wednesday

Time Temperature Precipitation Wind Pressure Humidity
00:00 +5°C° 0 mm 7 mps 739 mmHg 82%
01:00 +4°C° 0 mm 6 mps 740 mmHg 83%
02:00 +4°C° 0 mm 6 mps 740 mmHg 84%
03:00 +4°C° 0 mm 6 mps 741 mmHg 85%
04:00 +4°C° 0 mm 6 mps 741 mmHg 86%
05:00 +4°C° 0 mm 6 mps 742 mmHg 86%
06:00 +4°C° 0 mm 6 mps 742 mmHg 85%
07:00 +5°C° 0 mm 6 mps 743 mmHg 84%
08:00 +5°C° 0 mm 6 mps 743 mmHg 83%
09:00 +7°C° 0 mm 6 mps 744 mmHg 78%
10:00 +8°C° 0 mm 6 mps 744 mmHg 72%
11:00 +9°C° 0 mm 6 mps 745 mmHg 67%
12:00 +9°C° 0.2 mm 6 mps 745 mmHg 64%
13:00 +10°C° 0.2 mm 6 mps 745 mmHg 61%
14:00 +11°C° 0.2 mm 6 mps 746 mmHg 58%
15:00 +12°C° 0.1 mm 5 mps 746 mmHg 59%
16:00 +12°C° 0.1 mm 5 mps 746 mmHg 60%
17:00 +12°C° 0.1 mm 4 mps 746 mmHg 61%
18:00 +10°C° 0 mm 4 mps 747 mmHg 65%
19:00 +9°C° 0 mm 3 mps 747 mmHg 70%
20:00 +8°C° 0 mm 3 mps 748 mmHg 74%
21:00 +7°C° 0 mm 3 mps 748 mmHg 75%
22:00 +7°C° 0 mm 3 mps 748 mmHg 77%
23:00 +7°C° 0 mm 3 mps 749 mmHg 78%

22 April, Thursday

Time Temperature Precipitation Wind Pressure Humidity
00:00 +5°C° 0 mm 3 mps 749 mmHg 80%
01:00 +5°C° 0 mm 3 mps 749 mmHg 82%
02:00 +5°C° 0 mm 3 mps 749 mmHg 84%
03:00 +5°C° 0 mm 3 mps 750 mmHg 85%
04:00 +4°C° 0 mm 3 mps 750 mmHg 86%
05:00 +4°C° 0 mm 3 mps 750 mmHg 87%
06:00 +7°C° 0 mm 3 mps 751 mmHg 82%
07:00 +9°C° 0 mm 3 mps 751 mmHg 76%
08:00 +10°C° 0 mm 3 mps 751 mmHg 71%
09:00 +12°C° 0 mm 3 mps 752 mmHg 66%
10:00 +13°C° 0 mm 4 mps 752 mmHg 61%
11:00 +15°C° 0 mm 4 mps 752 mmHg 56%
12:00 +17°C° 0 mm 4 mps 752 mmHg 52%
13:00 +17°C° 0 mm 4 mps 752 mmHg 48%
14:00 +18°C° 0 mm 4 mps 752 mmHg 45%
15:00 +17°C° 0 mm 4 mps 752 mmHg 50%
16:00 +17°C° 0 mm 3 mps 752 mmHg 56%
17:00 +16°C° 0 mm 2 mps 752 mmHg 61%
18:00 +15°C° 0 mm 2 mps 753 mmHg 64%
19:00 +14°C° 0 mm 2 mps 753 mmHg 67%
20:00 +13°C° 0 mm 2 mps 753 mmHg 70%
21:00 +11°C° 0.2 mm 3 mps 753 mmHg 74%
22:00 +11°C° 0.2 mm 3 mps 753 mmHg 77%
23:00 +10°C° 0.2 mm 3 mps 754 mmHg 81%
Show more

We Need Your Consent

Meteoprog and our Service Providers may store and access personal data such as cookies, device identifiers or other similar technologies on your device and process such data to personalise content and ads, as well as provide social media features and to analyse the traffic.

  • Store and/or access information on your device

    Cookies, device identifiers or other information can be stored or accessed on your device for the purposes indicated above.

  • Personalised ads and content, ad and content measurement, audience insights, and products development

    Ads and content can be personalised based on a profile. More data can be added to better personalise ads and content. Ad and content performance can be measured. Insights about the audience who saw the ads and content can be derived. Such data can be used to develop or improve user’s experience, systems and software.

By clicking ‘I Agree’ you will allow the use of indicated cookies, device identifiers, web beacons or other similar technologies. Your settings can be changed in the browser on your device.

For certain purposes, legitimate interests may be relied on, rather than consent. You can read more about this in our Privacy and Cookie Policy.